When you browse on this site, cookies collect data to enhance your experience and personalize the content and advertising you see.
Visit our Privacy Policy to learn more. By continuing to use the site, you agree to this use of cookies and data.
  • en France
  • Liste des pays
  • À 7 jours
  • Température de l'eau
  • Carte météo
  • Widgets météo
  • user-avatar
    Se connecter

    Météo par heure à Bracknell

    Ce jour, 13 Décembre, Vendredi

    Heure Température Précipitation Vent Pression Humidité
    00:00 +6°C° 0 mm 5 m/s 722 mmHg 96%
    01:00 +5°C° 0.4 mm 6 m/s 722 mmHg 92%
    02:00 +5°C° 0.4 mm 8 m/s 722 mmHg 87%
    03:00 +3°C° 0.4 mm 10 m/s 722 mmHg 83%
    04:00 +3°C° 0.1 mm 10 m/s 723 mmHg 83%
    05:00 +3°C° 0.1 mm 10 m/s 723 mmHg 82%
    06:00 +4°C° 0 mm 8 m/s 724 mmHg 81%
    07:00 +4°C° 0 mm 8 m/s 725 mmHg 80%
    08:00 +4°C° 0 mm 8 m/s 726 mmHg 79%
    09:00 +3°C° 0 mm 9 m/s 728 mmHg 78%
    10:00 +3°C° 0 mm 9 m/s 728 mmHg 77%
    11:00 +3°C° 0 mm 9 m/s 729 mmHg 75%
    12:00 +5°C° 0 mm 9 m/s 730 mmHg 73%
    13:00 +3°C° 0 mm 9 m/s 730 mmHg 73%
    14:00 +4°C° 0 mm 8 m/s 731 mmHg 73%
    15:00 +4°C° 0 mm 8 m/s 731 mmHg 72%
    16:00 +4°C° 0 mm 8 m/s 731 mmHg 74%
    17:00 +3°C° 0 mm 7 m/s 731 mmHg 76%
    18:00 +2°C° 0 mm 6 m/s 732 mmHg 78%
    19:00 +2°C° 0 mm 5 m/s 731 mmHg 81%
    20:00 +3°C° 0 mm 4 m/s 730 mmHg 84%
    21:00 +3°C° 0 mm 4 m/s 730 mmHg 87%
    22:00 +4°C° 0.7 mm 3 m/s 729 mmHg 89%
    23:00 +4°C° 0.7 mm 3 m/s 729 mmHg 92%

    Demain, 14 Décembre, Samedi

    Heure Température Précipitation Vent Pression Humidité
    00:00 +6°C° 0.7 mm 2 m/s 729 mmHg 95%
    01:00 +5°C° 0.2 mm 4 m/s 729 mmHg 92%
    02:00 +3°C° 0.2 mm 6 m/s 730 mmHg 90%
    03:00 +3°C° 0.2 mm 7 m/s 731 mmHg 87%
    04:00 +3°C° 0 mm 7 m/s 732 mmHg 83%
    05:00 +2°C° 0 mm 6 m/s 733 mmHg 79%
    06:00 +2°C° 0 mm 6 m/s 734 mmHg 74%
    07:00 +2°C° 0 mm 6 m/s 734 mmHg 78%
    08:00 +2°C° 0 mm 6 m/s 735 mmHg 81%
    09:00 +2°C° 0 mm 6 m/s 735 mmHg 84%
    10:00 +2°C° 0.3 mm 7 m/s 736 mmHg 81%
    11:00 +2°C° 0.3 mm 8 m/s 736 mmHg 77%
    12:00 +4°C° 0.3 mm 8 m/s 737 mmHg 73%
    13:00 +3°C° 0 mm 7 m/s 737 mmHg 72%
    14:00 +3°C° 0 mm 6 m/s 737 mmHg 72%
    15:00 +3°C° 0 mm 5 m/s 738 mmHg 71%
    16:00 +3°C° 0 mm 5 m/s 737 mmHg 73%
    17:00 +2°C° 0 mm 5 m/s 736 mmHg 76%
    18:00 +2°C° 0 mm 5 m/s 736 mmHg 78%
    19:00 +3°C° 0.6 mm 6 m/s 735 mmHg 79%
    20:00 +5°C° 0.6 mm 7 m/s 734 mmHg 81%
    21:00 +6°C° 0.6 mm 9 m/s 733 mmHg 83%
    22:00 +5°C° 0.1 mm 8 m/s 733 mmHg 82%
    23:00 +4°C° 0.1 mm 8 m/s 733 mmHg 80%

    Après-demain, 15 Décembre, Dimanche

    Heure Température Précipitation Vent Pression Humidité
    00:00 +2°C° 0.1 mm 8 m/s 733 mmHg 79%
    01:00 +2°C° 0 mm 8 m/s 734 mmHg 76%
    02:00 +1°C° 0 mm 9 m/s 735 mmHg 73%
    03:00 +1°C° 0 mm 9 m/s 735 mmHg 70%
    04:00 +1°C° 0 mm 8 m/s 736 mmHg 71%
    05:00 +1°C° 0 mm 8 m/s 737 mmHg 72%
    06:00 +2°C° 0 mm 7 m/s 737 mmHg 73%
    07:00 +2°C° 0 mm 7 m/s 738 mmHg 76%
    08:00 +2°C° 0 mm 6 m/s 739 mmHg 80%
    09:00 +2°C° 0 mm 5 m/s 739 mmHg 84%
    10:00 +3°C° 0 mm 6 m/s 739 mmHg 79%
    11:00 +4°C° 0 mm 7 m/s 740 mmHg 75%
    12:00 +5°C° 0 mm 9 m/s 740 mmHg 70%
    13:00 +5°C° 0.2 mm 8 m/s 740 mmHg 71%
    14:00 +5°C° 0.2 mm 8 m/s 740 mmHg 72%
    15:00 +5°C° 0.2 mm 7 m/s 740 mmHg 74%
    16:00 +4°C° 0 mm 7 m/s 740 mmHg 76%
    17:00 +4°C° 0 mm 6 m/s 740 mmHg 79%
    18:00 +3°C° 0 mm 5 m/s 740 mmHg 81%
    19:00 +3°C° 0.1 mm 5 m/s 741 mmHg 82%
    20:00 +5°C° 0.1 mm 5 m/s 741 mmHg 82%
    21:00 +5°C° 0.1 mm 5 m/s 741 mmHg 83%
    22:00 +5°C° 0.2 mm 5 m/s 741 mmHg 84%
    23:00 +5°C° 0.2 mm 5 m/s 741 mmHg 86%

    16 Décembre, Lundi

    Heure Température Précipitation Vent Pression Humidité
    00:00 +5°C° 0.2 mm 5 m/s 741 mmHg 87%
    01:00 +5°C° 0.2 mm 5 m/s 741 mmHg 86%
    02:00 +5°C° 0.2 mm 4 m/s 741 mmHg 86%
    03:00 +5°C° 0.2 mm 4 m/s 741 mmHg 85%
    04:00 +5°C° 0.1 mm 4 m/s 741 mmHg 86%
    05:00 +5°C° 0.1 mm 4 m/s 741 mmHg 87%
    06:00 +5°C° 0.1 mm 4 m/s 741 mmHg 88%
    07:00 +5°C° 0 mm 4 m/s 741 mmHg 87%
    08:00 +5°C° 0 mm 3 m/s 741 mmHg 87%
    09:00 +5°C° 0 mm 3 m/s 741 mmHg 86%
    10:00 +7°C° 0 mm 3 m/s 741 mmHg 83%
    11:00 +8°C° 0 mm 3 m/s 741 mmHg 80%
    12:00 +8°C° 0 mm 3 m/s 741 mmHg 77%
    13:00 +8°C° 0 mm 3 m/s 741 mmHg 79%
    14:00 +8°C° 0 mm 2 m/s 741 mmHg 80%
    15:00 +7°C° 0 mm 2 m/s 740 mmHg 81%
    16:00 +8°C° 0 mm 1 m/s 740 mmHg 83%
    17:00 +7°C° 0 mm 1 m/s 740 mmHg 84%
    18:00 +7°C° 0 mm 1 m/s 740 mmHg 86%
    19:00 +7°C° 0 mm 1 m/s 741 mmHg 85%
    20:00 +7°C° 0 mm 1 m/s 741 mmHg 85%
    21:00 +6°C° 0 mm 1 m/s 741 mmHg 85%
    22:00 +5°C° 0 mm 0 m/s 741 mmHg 85%
    23:00 +5°C° 0 mm 0 m/s 741 mmHg 85%

    17 Décembre, Mardi

    Heure Température Précipitation Vent Pression Humidité
    00:00 +5°C° 0 mm 0 m/s 741 mmHg 85%
    01:00 +6°C° 0 mm 1 m/s 741 mmHg 86%
    02:00 +6°C° 0 mm 1 m/s 741 mmHg 86%
    03:00 +5°C° 0 mm 1 m/s 742 mmHg 87%
    04:00 +5°C° 0 mm 1 m/s 742 mmHg 88%
    05:00 +4°C° 0 mm 1 m/s 742 mmHg 89%
    06:00 +4°C° 0 mm 1 m/s 743 mmHg 91%
    07:00 +4°C° 0 mm 1 m/s 743 mmHg 90%
    08:00 +4°C° 0 mm 1 m/s 744 mmHg 90%
    09:00 +4°C° 0 mm 1 m/s 745 mmHg 90%
    10:00 +5°C° 0 mm 1 m/s 745 mmHg 87%
    11:00 +5°C° 0 mm 1 m/s 745 mmHg 83%
    12:00 +6°C° 0 mm 1 m/s 746 mmHg 79%
    13:00 +6°C° 0 mm 1 m/s 746 mmHg 80%
    14:00 +6°C° 0 mm 1 m/s 746 mmHg 81%
    15:00 +5°C° 0 mm 1 m/s 746 mmHg 82%
    16:00 +5°C° 0 mm 1 m/s 747 mmHg 83%
    17:00 +4°C° 0 mm 1 m/s 747 mmHg 85%
    18:00 +4°C° 0 mm 1 m/s 748 mmHg 86%
    19:00 +3°C° 0 mm 1 m/s 748 mmHg 87%
    20:00 +2°C° 0 mm 2 m/s 749 mmHg 87%
    21:00 +2°C° 0 mm 2 m/s 749 mmHg 88%
    22:00 +2°C° 0 mm 2 m/s 749 mmHg 87%
    23:00 +2°C° 0 mm 2 m/s 750 mmHg 85%

    18 Décembre, Mercredi

    Heure Température Précipitation Vent Pression Humidité
    00:00 +1°C° 0 mm 2 m/s 750 mmHg 84%
    01:00 +2°C° 0 mm 2 m/s 750 mmHg 84%
    02:00 +2°C° 0 mm 2 m/s 750 mmHg 83%
    03:00 +2°C° 0 mm 2 m/s 750 mmHg 83%
    04:00 +2°C° 0 mm 2 m/s 750 mmHg 83%
    05:00 +2°C° 0 mm 2 m/s 750 mmHg 83%
    06:00 +2°C° 0 mm 2 m/s 750 mmHg 83%
    07:00 +1°C° 0 mm 3 m/s 750 mmHg 86%
    08:00 +2°C° 0 mm 3 m/s 751 mmHg 88%
    09:00 +2°C° 0 mm 3 m/s 751 mmHg 90%
    10:00 +4°C° 0 mm 3 m/s 751 mmHg 89%
    11:00 +5°C° 0 mm 3 m/s 751 mmHg 88%
    12:00 +6°C° 0 mm 4 m/s 751 mmHg 87%
    13:00 +7°C° 0 mm 3 m/s 751 mmHg 89%
    14:00 +7°C° 0 mm 3 m/s 751 mmHg 90%
    15:00 +6°C° 0 mm 2 m/s 751 mmHg 92%
    16:00 +6°C° 0 mm 2 m/s 750 mmHg 93%
    17:00 +4°C° 0 mm 3 m/s 750 mmHg 94%
    18:00 +3°C° 0 mm 3 m/s 750 mmHg 95%
    19:00 +3°C° 0 mm 3 m/s 750 mmHg 95%
    20:00 +3°C° 0 mm 3 m/s 750 mmHg 95%
    21:00 +3°C° 0 mm 3 m/s 750 mmHg 94%
    22:00 +3°C° 0 mm 3 m/s 750 mmHg 94%
    23:00 +2°C° 0 mm 3 m/s 749 mmHg 93%
    Voir plus